{"data":{"norad_id":50834,"intl_designator":"2022-001AH","name":"STARLINK-3331","alt_names":[],"object_type":"PAYLOAD","status":"ACTIVE","operator":null,"country":"US","launch_date":"2022-01-06","launch_site_code":"AFETR","launch_vehicle":null,"mission":null,"orbit_class":"UNKNOWN","rcs_meters":null,"size_class":null,"mass_kg":null,"dimensions":null,"purposes":["comms"],"wikipedia_slug":null,"has_3d_model":false,"image_url":null,"decayed_at":null,"tle_current":{"epoch":"2026-05-25T03:25:42.322080Z","epoch_age_seconds":55867,"freshness":"FRESH","line1":"1 50834U 22001AH  26145.14285095 -.00000898  00000+0 -38382-4 0  9991","line2":"2 50834  53.2143 195.9124 0001109  91.0213 269.0906 15.08834447241809","mean_motion":15.08834447,"eccentricity":0.0001109,"inclination_deg":53.2143,"raan_deg":195.9124,"arg_perigee_deg":91.0213,"mean_anomaly_deg":269.0906,"bstar":-3.8382e-5,"rev_number":24180,"period_min":95.437905918912,"perigee_km":538.99316749817,"apogee_km":540.52755713313,"semimajor_km":6917.8973623156,"source":"CELESTRAK","updated_at":"2026-05-25T13:38:16.880301Z"}}}